User: anonymous   Login
Location: Unspecified
(0.0000°N, 0.0000°E)
Time: 17:01:50
(UTC+00:00)
Language:

HEATHSAT - Orbit

View from above orbital plane
View from above orbital plane
View from above satellite
View from above satellite

Ground track
Ground track

The orbit data is extracted from the following two-line orbital elements,

1 22827U 93061E   18174.91365936 +.00000013 +00000-0 +22593-4 0  9992
2 22827 098.8611 157.6071 0007826 283.3006 105.8914 14.31259618290962
Epoch (UTC): 23 June 2018 21:55:40
Eccentricity: 0.0007826
inclination: 98.8611°
perigee height: 782 km
apogee height: 793 km
right ascension of ascending node: 157.6071°
argument of perigee: 283.3006°
revolutions per day: 14.31259618
mean anomaly at epoch: 105.8914°
orbit number at epoch: 29096

The dashed part of the orbit path shows where the satellite is in the earth's shadow,  

DLR